Tracking 33197 objects as of 18-Feb-2026
HD Live streaming from Space Station
objects crossing your sky now

STARLINK-30376

Track STARLINK-30376 now!
10-day predictions
STARLINK-30376 is classified as:


NORAD ID: 57782
Int'l Code: 2023-134M
Perigee: 550.7 km
Apogee: 551.4 km
Inclination: 43.0 °
Period: 95.5 minutes
Semi major axis: 6922 km
RCS: Unknown
Launch date: September 4, 2023
Source: United States (US)
Launch site: AIR FORCE EASTERN TEST RANGE (AFETR)
Your satellite tracking list
Your tracking list is empty




NASA's NSSDC Master Catalog

Two Line Element Set (TLE):
1 57782U 23134M   26049.58336806  .00102055  00000-0  65359-2 0  9995
2 57782  43.0003 301.1089 0000521 221.6057 357.3027 15.07469456  5788
Source of the keplerian elements: AFSPC